Starlink 6377

operational
NORAD ID: 57341 Int'l Des: 2023-099 Owner: SPXS Country: US Constellation: starlink
LEOCIRCULAR

Starlink 6377について

説明を読み込み中...

リアルタイム位置

3D地球を読み込み中...

次回通過

高度履歴

Altitude vs Time

uPlot chart will show altitude changes over time

軌道要素

1 57341U 23099P 25305.10011202 -.00000472 00000-0 -19880-4 0 9990
2 57341 43.0049 227.6689 0001105 265.8309 94.2407 15.02529952126771
Epoch: Nov 1, 2025 • Age: 20 hours

現在のステータス

高度 560.7 km
速度 7.58 km/s
衛星直下点 -10.82°S, 37.2°E
打ち上げ日 Jul 16, 2023
運用期間 2.2 years
タイプ internet

技術仕様

分類 Payload
質量 305.00 kg
乾燥質量 290.00 kg
総質量 305.00 kg
長さ 0.20 m
直径 2.80 m
スパン 9.00 m
形状 Box + pan
製造者 SPXS
バスタイプ Starlink
フェーズステータス In Orbit
所有者/国 SPXS/US

大規模コンステレーション

Loading constellations...